This is the latest recevied weather packets stored in our database for station/object M0HPP-13. If no packets are shown the sender has not sent any weather packets the latest 10 day(s).
| Time | Temp. | Humidity | Pressure | Rain* | Wind** | Luminosity | Snow |
|---|---|---|---|---|---|---|---|
| 1787734686 | 14.44° C | 95% | 1019.5 hPa | 0 mm | - | 242 W/m² | - |
| 1787734086 | 13.89° C | 95% | 1019.5 hPa | 0 mm | - | 231 W/m² | - |
| 1787733486 | 13.89° C | 94% | 1019.5 hPa | 0 mm | - | 192 W/m² | - |
| 1787732886 | 14.44° C | 92% | 1019.4 hPa | 0 mm | - | 241 W/m² | - |
| 1787732286 | 14.44° C | 92% | 1019.4 hPa | 0 mm | - | 231 W/m² | - |
| 1787731686 | 14.44° C | 90% | 1019.2 hPa | 0 mm | - | 222 W/m² | - |
| 1787731086 | 14.44° C | 88% | 1019.3 hPa | 0 mm | - | 198 W/m² | - |
| 1787730486 | 14.44° C | 87% | 1019.2 hPa | 0 mm | - | 186 W/m² | - |
| 1787729886 | 14.44° C | 89% | 1019.1 hPa | 0 mm | - | 172 W/m² | - |
| 1787729286 | 13.89° C | 92% | 1019 hPa | 0 mm | - | 129 W/m² | - |
| 1787728686 | 13.89° C | 92% | 1019.1 hPa | 0 mm | - | 147 W/m² | - |
| 1787728086 | 13.89° C | 92% | 1019.1 hPa | 0 mm | - | 110 W/m² | - |
| 1787727486 | 13.89° C | 92% | 1019.1 hPa | 0 mm | - | 110 W/m² | - |
| 1787726886 | 13.33° C | 91% | 1019.1 hPa | 0 mm | - | 99 W/m² | - |
| 1787726286 | 13.33° C | 92% | 1019.1 hPa | 0 mm | - | 87 W/m² | - |
| 1787725686 | 13.33° C | 93% | 1019.1 hPa | 0 mm | - | 75 W/m² | - |
| 1787725086 | 13.33° C | 95% | 1019.1 hPa | 0 mm | - | 62 W/m² | - |
| 1787724486 | 12.78° C | 94% | 1019.1 hPa | 0 mm | - | 52 W/m² | - |
| 1787723886 | 12.78° C | 95% | 1019 hPa | 0 mm | - | 32 W/m² | - |
| 1787723286 | 12.78° C | 96% | 1018.9 hPa | 0 mm | - | 25 W/m² | - |
| 1787722686 | 12.78° C | 96% | 1018.8 hPa | 0 mm | - | 18 W/m² | - |
| 1787722086 | 12.22° C | 97% | 1018.9 hPa | 0 mm | - | 11 W/m² | - |
| 1787721486 | 12.22° C | 97% | 1018.8 hPa | 0 mm | - | 6 W/m² | - |
| 1787720886 | 12.22° C | 98% | 1018.9 hPa | 0 mm | - | 3 W/m² | - |
| 1787720286 | 12.22° C | 98% | 1018.9 hPa | 0 mm | - | 1 W/m² | - |
* Rain latest hour (hover to see other rain measurements)
** Current wind speed in m/s (hover to see current wind gust speed)